カタログに戻る

DELTA 1 DEB

運用中PO
NORAD 26840·DEBRIS·🇺🇸 United States

打ち上げ Jun 12, 1975 から Vandenberg Space Force Base

Loading…

次のパス (今後24時間)

TLE

経年Source: Space-Track

元期: Sep 11, 2026, 03:16 UTC

1 26840U 75052KU  26254.13670250  .00000006  00000-0  15722-3 0  9998
2 26840  99.6994 133.8072 0363439 219.4240 298.9401 12.73397506603940

AllMySatでDELTA 1 DEBをリアルタイム追跡

Download on the App Store